Carver, MA

5:26 AM EDT on September 29, 2016 (GMT -0400)
Plymouth Municipal

Weather History for KPYM - February, 2014

Change the Weather History Date:

Monday, February 17, 2014

  Actual Average Record
Temperature  
Mean Temperature 18 °F -  
Max Temperature 28 °F 40 °F 55 °F (1976)
Min Temperature 3 °F 17 °F -1 °F (1979)
Degree Days  
Heating Degree Days 48    
Moisture  
Dew Point 0 °F    
Average Humidity 47    
Maximum Humidity 80    
Minimum Humidity 27    
Precipitation  
Precipitation 0.00 in - - ()
Sea Level Pressure  
Sea Level Pressure 30.21 in    
Wind  
Wind Speed 10 mph (NW)    
Max Wind Speed 17 mph    
Max Gust Speed 26 mph    
Visibility 10 miles    
Events      
Averages and records for this station are not official NWS values.
T = Trace of Precipitation, MM = Missing Value Source: NWS Daily Summary

Daily Weather History Graph

Daily Weather History Graph

Search for Another Location

Airport or City:

Trip Planner

Search our weather history database for the weather conditions in past years. The results will help you decide how hot, cold, wet, or windy it might be!

Date:

Astronomy

Feb. 17, 2014 Rise Set
Actual Time 6:35 AM EST 5:18 PM EST
Civil Twilight 6:07 AM EST 5:46 PM EST
Nautical Twilight 5:34 AM EST 6:19 PM EST
Astronomical Twilight 5:02 AM EST 6:51 PM EST
Moon 8:13 PM EST (2/17) 7:31 AM EST (2/17)
Length of Visible Light 11h 39m
Length of Day
10h 42m
Waning Gibbous, 93% of the Moon is Illuminated
Feb 17
Waning Gibbous
Feb 22
Last Quarter
Mar 1
New
Mar 8
First Quarter
Mar 16
Full

Hourly Weather History & Observations

Time (EST) Temp. Windchill Dew Point Humidity Pressure Visibility Wind Dir Wind Speed Gust Speed Precip Events Conditions
12:52 AM 21.9 °F 11.0 °F 8.1 °F 55% 29.97 in 10.0 mi WNW 10.4 mph - N/A   Overcast
1:52 AM 21.0 °F 11.4 °F 7.0 °F 55% 29.99 in 10.0 mi WNW 8.1 mph - N/A   Overcast
2:52 AM 19.0 °F 6.8 °F -0.0 °F 43% 30.02 in 10.0 mi NW 11.5 mph - N/A   Clear
3:52 AM 16.0 °F 4.4 °F -2.0 °F 45% 30.05 in 10.0 mi NW 9.2 mph 20.7 mph N/A   Clear
4:52 AM 16.0 °F 0.6 °F -2.9 °F 43% 30.06 in 10.0 mi NW 16.1 mph 25.3 mph N/A   Clear
5:52 AM 14.0 °F 1.2 °F -2.0 °F 49% 30.10 in 10.0 mi NW 10.4 mph - N/A   Clear
6:52 AM 14.0 °F 2.0 °F -2.9 °F 47% 30.14 in 10.0 mi NW 9.2 mph - N/A   Clear
7:52 AM 14.0 °F -0.8 °F -2.9 °F 47% 30.17 in 10.0 mi NW 13.8 mph - N/A   Clear
8:52 AM 16.0 °F 4.4 °F -2.9 °F 43% 30.21 in 10.0 mi NW 9.2 mph 19.6 mph N/A   Clear
9:52 AM 19.0 °F 8.2 °F -2.0 °F 40% 30.22 in 10.0 mi NW 9.2 mph 20.7 mph N/A   Clear
10:52 AM 21.9 °F 10.4 °F -0.9 °F 37% 30.23 in 10.0 mi NW 11.5 mph - N/A   Clear
11:52 AM 24.1 °F 11.0 °F -0.0 °F 35% 30.23 in 10.0 mi NNW 16.1 mph 25.3 mph N/A   Clear
12:52 PM 26.1 °F 14.0 °F -0.0 °F 32% 30.23 in 10.0 mi NNW 15.0 mph 26.5 mph N/A   Clear
1:52 PM 27.0 °F 14.3 °F -0.9 °F 30% 30.23 in 10.0 mi NW 17.3 mph 25.3 mph N/A   Clear
3:52 PM 28.0 °F 20.0 °F -0.9 °F 29% 30.27 in 10.0 mi NNW 8.1 mph 17.3 mph N/A   Clear
4:52 PM 27.0 °F 18.7 °F -2.9 °F 27% 30.30 in 10.0 mi NW 8.1 mph - N/A   Clear
5:52 PM 24.1 °F 15.2 °F -2.0 °F 32% 30.32 in 10.0 mi WNW 8.1 mph - N/A   Clear
6:52 PM 18.0 °F 9.8 °F 1.0 °F 48% 30.33 in 10.0 mi North 5.8 mph - N/A   Clear
7:52 PM 12.0 °F 4.1 °F 1.9 °F 64% 30.35 in 10.0 mi ENE 4.6 mph - N/A   Clear
8:52 PM 12.9 °F - 1.0 °F 59% 30.36 in 10.0 mi Calm Calm - N/A   Clear
9:52 PM 8.1 °F - -0.0 °F 70% 30.35 in 10.0 mi Calm Calm - N/A   Clear
10:52 PM 7.0 °F - -0.0 °F 73% 30.33 in 10.0 mi Calm Calm - N/A   Clear
11:52 PM 3.9 °F - -0.9 °F 80% 30.37 in 10.0 mi Calm Calm - N/A   Clear